OBJECT B, 59774

Orbit data source: Space-Track

You're viewing an Uncataloged Satellite

Recently launched and/or uncataloged satellites may have evolving metadata. Metadata may include but not limited to: Owner, Maufacturer, Bus, Motor, and Mission.

OBJECT B, 59774 is a satellite owned by Sputniks (CIS) in SSO that was launched on Thu, 16 May 2024 UTC via a SOYUZ-2-1B launch vehicle from the Plesetsk Missile And Space Complex (PKMTR). Unknown objects in Earth's orbit typically refer to objects detected orbiting the Earth but have not yet been identified or cataloged. These objects could be anything from previously untracked satellites, spent rocket stages, debris from satellite collisions, or even natural meteoroids temporarily captured by Earth's gravity.

Loading next visibility...
Identifier
59774, 2024-092B
Orbit
SSO
Last TLE update
7 hours ago
Origin
Manufacturer
Sputniks
Mission
Operational spacecraft
Bus & Motor
CUBESAT 12U, Unknown motor
Mass
20 kg wet, 20 kg dry
Launch date (UTC)
2024-05-16 (1 year ago)
Launch vehicle
SOYUZ-2-1B
Launch site
Plesetsk Missile And Space Complex (PKMTR)
Object type
Unknown
Shape & HBR
Unknown
Radar Cross Section
Medium (>0.1 m² and <1 m²)

Expand to show TLE details & history

TLE from 7 hours ago
0 OBJECT B
1 59774U 24092B   25192.13079355  .00004517  00000-0  21085-3 0  9997
2 59774  97.6175 309.9517 0009235 297.1552  62.8740 15.20328879 63576
Epoch: 2025-07-11T03:08Z
TLE epoch observation values (Epoch: 2025-07-11T03:08:20.562Z)
Latitude
-0.0001°
Longitude
-26.42109°
Altitude
505.038 km
Speed
7.613 km/s
True Right ascension
20h 39m 48s
True Declination
0° 00' 00"
Sunlit
Object was in full shadow at epoch
Visualization orbit readout
Latitude
65.43804°
Longitude
170.78461°
Altitude
522.508 km
Speed
7.605 km/s
Apparent Right ascension
10h 05m 19s
Apparent Declination
15° 42' 16"
Sunlit
Object is in daylight
Visualization observer readout
Local Sidereal Time
22:15:07
Azimuth
2.855° NNE
Elevation
-34.333°
Doppler factor
1
Orbital elements
Apogee altitude
508.176 km
Perigee altitude
495.469 km
Semi-major axis
6,879.959 km
Eccentricity
0.00092
Inclination
97.6175°
RAAN
309.9517°
Arg. of periapsis
297.1552°
True anomaly
Unknown
Mean anomaly
62.874°
Eccentric anomaly
Unknown
Mean motion
3.80333 °/min
Orbital period
94.65 mins
BSTAR
0.00021085
Loading maneuver chart data...
Loading SW <> Apogee altitude chart data...
Loading historical data...
Loading historical data...
Loading historical data...
Loading historical data...
Loading historical data...
Loading historical data...
Loading historical data...

OBJECT B Visibility forecast

Observer location: undefined°, undefined°

Span
Click to sort rows by Start time (UTC) header in descending order
Start Az.
Max El. time (UTC)
Max El. Az.
Max El.
End time (UTC)
End Az.
6 mins2025-07-11 21:04:19.512Z359.052° N2025-07-11 21:07:19.512Z291.848° WNW37.342°2025-07-11 21:10:19.512Z213.38° SW
5 mins2025-07-12 07:43:19.512Z145.425° SSE2025-07-12 07:45:19.512Z51.458° ENE40.355°2025-07-12 07:48:19.512Z356.3° N
|